Regional Weather Roundup
Issued by NWS

Home | Current Version | Previous Version | Text Only | Print | Product List | Glossary Off
Versions: 1 2 3 4 5 6 7 8 9 10 11 12 13 14 15 16 17 18 19 20 21 22 23 24 25 26 27 28 29 30 31 32 33 34 35 36 37 38 39 40 41 42 43 44 45 46 47 48 49 50

000
ASUS43 KOAX 231702
RWRNE

WEATHER ROUNDUP FOR NEBRASKA
NATIONAL WEATHER SERVICE OMAHA NE
1200 PM CDT SAT JUL 23 2016

NOTES: SATELLITE DATA IS BEING USED TO AUGMENT CLOUD COVER ABOVE
       12000 FEET.
       "FAIR" INDICATES FEW OR NO CLOUDS BELOW 12,000 FEET WITH NO
       SIGNIFICANT WEATHER AND/OR OBSTRUCTIONS TO VISIBILITY.

  * THESE STATIONS DO NOT REPORT WEATHER SUCH AS RAIN...SNOW OR FOG.

NEZ001>004-019>022-054>056-231800-
NEBRASKA PANHANDLE

CITY           SKY/WX    TMP DP  RH WIND       PRES   REMARKS
SCOTTSBLUFF    SUNNY     89  48  24 NW16      30.00R
ALLIANCE       SUNNY     87  57  35 W10       29.96S
CHADRON        SUNNY     86  54  33 NW17      29.93R
KIMBALL        SUNNY     91  49  23 NW18      30.07R
SIDNEY         CLOUDY    94  46  19 NW18G24   30.02F HX  90
$$

NEZ057>060-069>072-079>082-231800-
SOUTHWEST NEBRASKA

CITY           SKY/WX    TMP DP  RH WIND       PRES   REMARKS
NORTH PLATTE   CLOUDY    83  69  62 SW7       29.91R
IMPERIAL       CLOUDY    81  66  60 SW6       29.94F
LEXINGTON      SUNNY     83  70  63 SW8       29.88F
MCCOOK         CLOUDY    84  68  58 SW8       29.89F
OGALLALA       SUNNY     86  67  53 SW6       29.93F
$$

NEZ005>010-023>029-035>040-094-231800-
NORTH CENTRAL NEBRASKA

CITY           SKY/WX    TMP DP  RH WIND       PRES   REMARKS
VALENTINE      SUNNY     87  64  46 SW12      29.82F
AINSWORTH      SUNNY     89  66  46 SW18G26   29.82F HX  92
BROKEN BOW     SUNNY     84  69  60 SW18G26   29.88F
O`NEILL        SUNNY     88  67  50 S13       29.82F HX  91
ORD            SUNNY     84  69  60 SW8       29.84F
THEDFORD       SUNNY     88  64  45 SW21G30   29.88S
$$

NEZ041-046>049-061>064-073>077-083>087-231800-
SOUTH CENTRAL NEBRASKA

CITY           SKY/WX    TMP DP  RH WIND       PRES   REMARKS
GRAND ISLAND   MOSUNNY   87  69  54 SW15G21   29.86S HX  91
AURORA         CLOUDY    84  71  65 SW7       29.85R
HASTINGS       MOSUNNY   83  68  60 S14       29.87R
HEBRON         MOSUNNY   84  69  60 S7        29.86F
HOLDREGE       MOSUNNY   83  71  67 CALM      29.88F
KEARNEY *      CLOUDY    84  70  61 SW9       29.88F
YORK           CLOUDY    82  70  65 SW9G16    29.84S
$$

NEZ011>018-030>034-042>045-231800-
NORTHEAST NEBRASKA

CITY           SKY/WX    TMP DP  RH WIND       PRES   REMARKS
NORFOLK        SUNNY     87  73  62 S8        29.82S HX  94
ALBION         SUNNY     86  71  60 S10       29.84S HX  91
BLAIR          CLOUDY    82  73  73 S5        29.84S
FREMONT        MOSUNNY   84  73  70 SE6       29.83S HX  90
TEKAMAH        PTSUNNY   82  74  76 SE10      29.81S
WAYNE          MOSUNNY   86  77  74 SW12      29.82S HX  97
$$

NEZ050>053-065>068-078-088>093-231800-
SOUTHEAST NEBRASKA

CITY           SKY/WX    TMP DP  RH WIND       PRES   REMARKS
LINCOLN        CLOUDY    86  71  60 S13       29.83S HX  91
OMAHA EPPLEY   CLOUDY    83  73  72 SE10      29.83R
BEATRICE       CLOUDY    84  70  61 S10       29.86R
FALLS CITY     CLOUDY    86  74  67 S12       29.87R HX  94
NEBRASKA CITY  CLOUDY    82  73  75 S13       29.84F
PLATTSMOUTH    CLOUDY    82  73  74 S13       29.84R
$$

NEZ044-045-051>053-067-231800-
OMAHA AREA

CITY           SKY/WX    TMP DP  RH WIND       PRES   REMARKS
OMAHA EPPLEY   CLOUDY    83  73  72 SE10      29.83R
BLAIR          CLOUDY    82  73  73 S5        29.84S
FREMONT        MOSUNNY   84  73  70 SE6       29.83S HX  90
MILLARD        CLOUDY    84  73  69 SE8       29.83S HX  90
OFFUTT AFB     CLOUDY    84  73  69 S6        29.84R HX  91
PLATTSMOUTH    CLOUDY    82  73  74 S13       29.84R
WAHOO          FAIR      85  75  71 S8        29.83S HX  93
$$



USA.gov is the U.S. government's official web portal to all federal, state and local government web resources and services.